CW0069 Weather Reports


Display with metric or nautical units.
time (UTC)temp
F
wind
direction
speed
MPH
gust
MPH
rain 1hr
in
rain 24hr
in
rain mn
in
humidity
%
barometer
mb
20260902045404 97 109 3.0 8.0 0.00 0.00 0.00 34 1012.6
20260902044903 97 116 3.0 9.0 0.00 0.00 0.00 34 1012.5
20260902044404 97 111 4.0 7.0 0.00 0.00 0.00 34 1012.6
20260902043904 97 102 4.0 8.0 0.00 0.00 0.00 34 1012.6
20260902043404 97 108 3.0 8.0 0.00 0.00 0.00 34 1012.5
20260902042403 97 133 3.0 8.0 0.00 0.00 0.00 34 1012.5
20260902041904 97 125 4.0 7.0 0.00 0.00 0.00 34 1012.5
20260902041404 97 118 6.0 9.0 0.00 0.00 0.00 34 1012.4
20260902040905 97 107 6.0 12.0 0.00 0.00 0.00 34 1012.3
20260902040404 97 112 5.0 10.0 0.00 0.00 0.00 34 1012.4
20260902035903 97 107 3.0 12.0 0.00 0.00 0.00 34 1012.4
20260902035404 97 124 5.0 12.0 0.00 0.00 0.00 34 1012.2
20260902034404 97 105 6.0 12.0 0.00 0.00 0.00 34 1012.3
20260902033904 97 114 6.0 9.0 0.00 0.00 0.00 34 1012.2
20260902033404 97 118 5.0 10.0 0.00 0.00 0.00 34 1012.3
20260902032905 97 116 6.0 12.0 0.00 0.00 0.00 34 1012.1
20260902032404 97 95 6.0 12.0 0.00 0.00 0.00 34 1012.1
20260902031904 97 109 6.0 16.0 0.00 0.00 0.00 34 1012.0
20260902031403 97 96 4.0 10.0 0.00 0.00 0.00 34 1012.0
20260902030904 97 100 2.0 3.0 0.00 0.00 0.00 34 1011.7
20260902030404 97 117 1.0 2.0 0.00 0.00 0.00 34 1011.5
20260902025904 97 117 1.0 3.0 0.00 0.00 0.00 34 1011.6
20260902025404 97 117 0.0 2.0 0.00 0.00 0.00 34 1011.5
20260902024904 97 117 1.0 2.0 0.00 0.00 0.00 34 1011.3
20260902024405 97 117 1.0 2.0 0.00 0.00 0.00 34 1011.3
20260902023904 97 117 0.0 1.0 0.00 0.00 0.00 34 1011.2
20260902023404 97 117 0.0 0.0 0.00 0.00 0.00 34 1011.2
20260902022904 97 117 0.0 1.0 0.00 0.00 0.00 34 1011.1
20260902022404 97 117 0.0 2.0 0.00 0.00 0.00 34 1011.0
20260902020904 97 118 1.0 3.0 0.00 0.00 0.00 34 1010.8
20260902020404 97 118 1.0 3.0 0.00 0.00 0.00 34 1010.8
20260902015904 97 111 2.0 3.0 0.00 0.00 0.00 34 1010.7
20260902015404 97 71 2.0 3.0 0.00 0.00 0.00 34 1010.7
20260902014904 97 71 2.0 5.0 0.00 0.00 0.00 34 1010.5
20260902014404 97 65 2.0 5.0 0.00 0.00 0.00 34 1010.5
20260902013904 97 60 2.0 3.0 0.00 0.00 0.00 34 1010.4
20260902012904 97 60 2.0 3.0 0.00 0.00 0.00 34 1010.4
20260902012404 97 61 2.0 3.0 0.00 0.00 0.00 34 1010.3
20260902011903 97 58 2.0 3.0 0.00 0.00 0.00 34 1010.3
20260902011403 97 58 1.0 3.0 0.00 0.00 0.00 34 1010.2
20260902010903 97 58 1.0 5.0 0.00 0.00 0.00 34 1010.2
20260902010404 97 60 2.0 5.0 0.00 0.00 0.00 34 1010.1
20260902005904 97 63 1.0 6.0 0.00 0.00 0.00 34 1010.1
20260902004904 97 301 2.0 3.0 0.00 0.00 0.00 34 1010.2
20260902004404 97 349 8.0 18.0 0.00 0.00 0.00 34 1010.3
20260902003904 97 31 12.0 20.0 0.00 0.00 0.00 34 1010.2
20260902003404 97 58 6.0 14.0 0.00 0.00 0.00 34 1010.1
20260902002905 97 53 7.0 12.0 0.00 0.00 0.00 34 1010.2
20260902001904 97 49 0.0 0.0 0.00 0.00 0.00 34 1010.1
20260902001404 97 49 0.0 0.0 0.00 0.00 0.00 34 1010.1
20260902000406 97 49 0.0 1.0 0.00 0.00 0.00 34 1010.2
20260901235904 97 49 0.0 0.0 0.00 0.00 0.00 34 1010.2
20260901235403 97 49 0.0 1.0 0.00 0.00 0.00 34 1010.2
20260901234404 97 49 1.0 3.0 0.00 0.00 0.00 34 1010.3
20260901233904 97 50 1.0 3.0 0.00 0.00 0.00 34 1010.4
20260901233403 97 50 1.0 2.0 0.00 0.00 0.00 34 1010.4
20260901232903 97 50 0.0 3.0 0.00 0.00 0.00 34 1010.3
20260901232404 97 49 1.0 2.0 0.00 0.00 0.00 34 1010.4
20260901231904 97 49 1.0 3.0 0.00 0.00 0.00 35 1010.4
20260901231404 97 52 1.0 3.0 0.00 0.00 0.00 34 1010.5
20260901230904 97 59 0.0 2.0 0.00 0.00 0.00 33 1010.4
20260901230403 97 59 3.0 5.0 0.00 0.00 0.00 33 1010.4
20260901225903 98 82 2.0 3.0 0.00 0.00 0.00 33 1010.5
20260901225404 98 82 2.0 3.0 0.00 0.00 0.00 33 1010.5
20260901224904 98 57 2.0 3.0 0.00 0.00 0.00 33 1010.4
20260901224404 98 57 3.0 6.0 0.00 0.00 0.00 33 1010.5
20260901223904 98 93 2.0 5.0 0.00 0.00 0.00 34 1010.5
20260901223403 99 51 3.0 10.0 0.00 0.00 0.00 33 1010.5
20260901222904 99 61 5.0 12.0 0.00 0.00 0.00 34 1010.5
20260901222404 98 74 6.0 12.0 0.00 0.00 0.00 33 1010.5
20260901221904 98 53 3.0 7.0 0.00 0.00 0.00 33 1010.4
20260901221404 98 82 3.0 9.0 0.00 0.00 0.00 33 1010.6
20260901220904 98 56 1.0 3.0 0.00 0.00 0.00 33 1010.6
20260901220403 97 77 3.0 6.0 0.00 0.00 0.00 34 1010.6
20260901215904 97 91 1.0 6.0 0.00 0.00 0.00 34 1010.6
20260901215404 97 67 5.0 8.0 0.00 0.00 0.00 34 1010.8
20260901214904 97 72 3.0 7.0 0.00 0.00 0.00 34 1010.8
20260901214403 97 69 3.0 6.0 0.00 0.00 0.00 34 1010.8
20260901213404 97 58 4.0 8.0 0.00 0.00 0.00 33 1010.9
20260901212904 97 71 2.0 5.0 0.00 0.00 0.00 34 1010.9
20260901212403 97 69 2.0 8.0 0.00 0.00 0.00 34 1011.0
20260901211904 97 67 3.0 12.0 0.00 0.00 0.00 34 1010.9
20260901211404 98 98 3.0 7.0 0.00 0.00 0.00 33 1011.0
20260901210904 98 80 3.0 7.0 0.00 0.00 0.00 33 1011.1
20260901210403 98 111 4.0 7.0 0.00 0.00 0.00 32 1011.2
20260901205904 98 37 5.0 9.0 0.00 0.00 0.00 32 1011.1
20260901205404 98 43 2.0 7.0 0.00 0.00 0.00 33 1011.2
20260901204904 98 54 5.0 8.0 0.00 0.00 0.00 33 1011.2
20260901204404 98 69 2.0 7.0 0.00 0.00 0.00 32 1011.2
20260901203904 99 47 3.0 7.0 0.00 0.00 0.00 31 1011.2
20260901202904 100 55 4.0 8.0 0.00 0.00 0.00 31 1011.3
20260901202403 100 34 2.0 3.0 0.00 0.00 0.00 32 1011.3
20260901201904 100 292 3.0 7.0 0.00 0.00 0.00 30 1011.4
20260901201404 101 314 4.0 10.0 0.00 0.00 0.00 30 1011.4
20260901200906 101 236 5.0 12.0 0.00 0.00 0.00 32 1011.5
20260901195904 100 215 1.0 3.0 0.00 0.00 0.00 32 1011.6
20260901195403 100 117 1.0 5.0 0.00 0.00 0.00 32 1011.6
20260901194404 100 283 2.0 3.0 0.00 0.00 0.00 32 1011.8
20260901193904 100 280 2.0 3.0 0.00 0.00 0.00 33 1011.9
20260901193404 100 306 3.0 9.0 0.00 0.00 0.00 31 1012.0
20260901192903 101 309 3.0 9.0 0.00 0.00 0.00 32 1012.0
20260901192404 101 19 2.0 7.0 0.00 0.00 0.00 34 1012.1
20260901191404 101 224 2.0 9.0 0.00 0.00 0.00 33 1012.1
20260901190904 101 248 6.0 12.0 0.00 0.00 0.00 32 1012.2
20260901185403 100 240 1.0 3.0 0.00 0.00 0.00 34 1012.6
20260901184904 100 67 3.0 9.0 0.00 0.00 0.00 31 1012.6
20260901184404 101 351 3.0 8.0 0.00 0.00 0.00 33 1012.6
20260901183903 101 120 4.0 8.0 0.00 0.00 0.00 32 1012.8
20260901183404 100 116 2.0 8.0 0.00 0.00 0.00 33 1013.0
20260901182404 100 136 0.0 3.0 0.00 0.00 0.00 33 1013.0
20260901181904 100 109 2.0 5.0 0.00 0.00 0.00 34 1013.2
20260901181404 99 22 2.0 7.0 0.00 0.00 0.00 35 1013.4
20260901180903 98 136 1.0 5.0 0.00 0.00 0.00 35 1013.5
20260901180404 98 136 6.0 8.0 0.00 0.00 0.00 37 1013.5
20260901175903 98 155 3.0 5.0 0.00 0.00 0.00 37 1013.7
20260901175404 97 171 3.0 6.0 0.00 0.00 0.00 38 1013.8
20260901174904 96 221 2.0 6.0 0.00 0.00 0.00 39 1013.8
20260901173404 95 172 3.0 5.0 0.00 0.00 0.00 39 1014.1
20260901172903 96 217 3.0 6.0 0.00 0.00 0.00 38 1014.1
20260901172403 96 256 3.0 8.0 0.00 0.00 0.00 37 1014.3
20260901171904 96 263 5.0 9.0 0.00 0.00 0.00 38 1014.2
20260901171403 97 269 4.0 8.0 0.00 0.00 0.00 37 1014.3
20260901170904 98 212 3.0 6.0 0.00 0.00 0.00 37 1014.4
20260901170404 98 235 5.0 7.0 0.00 0.00 0.00 36 1014.4
20260901165904 98 232 3.0 5.0 0.00 0.00 0.00 35 1014.4
20260901165403 98 208 2.0 3.0 0.00 0.00 0.00 38 1014.4
20260901163904 96 127 2.0 7.0 0.00 0.00 0.00 39 1014.6
20260901163404 96 153 3.0 7.0 0.00 0.00 0.00 40 1014.5
20260901162904 96 161 3.0 7.0 0.00 0.00 0.00 41 1014.6
20260901162404 95 205 3.0 7.0 0.00 0.00 0.00 41 1014.7
20260901161904 95 146 3.0 5.0 0.00 0.00 0.00 40 1014.7
20260901160404 94 199 2.0 5.0 0.00 0.00 0.00 42 1014.7
20260901155903 94 175 2.0 6.0 0.00 0.00 0.00 42 1014.7
20260901155404 94 132 1.0 7.0 0.00 0.00 0.00 42 1014.7
20260901154904 94 152 4.0 7.0 0.00 0.00 0.00 42 1014.7
20260901154404 93 204 1.0 5.0 0.00 0.00 0.00 43 1014.7
20260901153903 93 210 3.0 6.0 0.00 0.00 0.00 45 1014.8
20260901153404 93 197 5.0 7.0 0.00 0.00 0.00 45 1014.8
20260901152904 92 204 3.0 7.0 0.00 0.00 0.00 44 1014.8
20260901152403 92 203 4.0 7.0 0.00 0.00 0.00 45 1014.7
20260901151904 92 203 4.0 6.0 0.00 0.00 0.00 46 1014.6
20260901151404 92 215 3.0 5.0 0.00 0.00 0.00 47 1014.7
20260901150904 91 185 3.0 5.0 0.00 0.00 0.00 48 1014.7
20260901150404 91 214 2.0 7.0 0.00 0.00 0.00 47 1014.7
20260901145904 90 205 4.0 8.0 0.00 0.00 0.00 48 1014.7
20260901145403 90 135 2.0 7.0 0.00 0.00 0.00 48 1014.7
20260901144904 90 202 2.0 6.0 0.00 0.00 0.00 48 1014.8
20260901144403 90 161 4.0 7.0 0.00 0.00 0.00 50 1014.9
20260901143904 89 180 2.0 5.0 0.00 0.00 0.00 50 1014.9
20260901143403 89 142 2.0 5.0 0.00 0.00 0.00 50 1015.0
20260901142904 89 143 2.0 3.0 0.00 0.00 0.00 51 1014.9
20260901142403 88 155 3.0 6.0 0.00 0.00 0.00 52 1014.9
20260901141904 88 132 3.0 7.0 0.00 0.00 0.00 53 1014.9
20260901141404 87 118 2.0 3.0 0.00 0.00 0.00 53 1014.9
20260901140904 87 118 2.0 3.0 0.00 0.00 0.00 55 1014.9
20260901140404 86 119 2.0 3.0 0.00 0.00 0.00 55 1014.9
20260901135906 86 118 2.0 3.0 0.00 0.00 0.00 56 1014.8
20260901135403 85 119 2.0 3.0 0.00 0.00 0.00 56 1014.9
20260901134904 84 119 2.0 3.0 0.00 0.00 0.00 57 1014.9
20260901134404 84 116 2.0 3.0 0.00 0.00 0.00 58 1015.0
20260901133903 83 116 1.0 3.0 0.00 0.00 0.00 58 1015.0
20260901133404 83 116 1.0 3.0 0.00 0.00 0.00 59 1015.0
20260901132904 82 116 2.0 3.0 0.00 0.00 0.00 59 1015.0
20260901132404 82 117 1.0 3.0 0.00 0.00 0.00 60 1015.0
20260901131903 81 116 1.0 2.0 0.00 0.00 0.00 60 1015.0
20260901131404 97 117 0.0 0.0 0.00 0.00 0.00 26 1014.8
20260901130404 97 117 0.0 1.0 0.00 0.00 0.00 26 1014.8
20260901125404 97 117 0.0 2.0 0.00 0.00 0.00 26 1014.6
20260901124904 97 117 0.0 0.0 0.00 0.00 0.00 26 1014.5
20260901123904 97 117 0.0 0.0 0.00 0.00 0.00 26 1014.4
20260901123403 97 117 0.0 0.0 0.00 0.00 0.00 26 1014.4
20260901122903 97 116 0.0 0.0 0.00 0.00 0.00 26 1014.4
20260901122404 97 116 0.0 2.0 0.00 0.00 0.00 26 1014.4
20260901121904 97 116 1.0 3.0 0.00 0.00 0.00 26 1014.4
20260901120904 97 117 0.0 1.0 0.00 0.00 0.00 26 1014.0
20260901120404 97 117 0.0 1.0 0.00 0.00 0.00 26 1014.1
20260901115903 97 117 0.0 1.0 0.00 0.00 0.00 26 1014.1
20260901114903 97 117 1.0 2.0 0.00 0.00 0.00 26 1013.9
20260901114403 97 117 0.0 0.0 0.00 0.00 0.00 26 1013.8
20260901113904 97 117 0.0 0.0 0.00 0.00 0.00 26 1013.7
20260901112904 97 117 0.0 2.0 0.00 0.00 0.00 26 1013.6
20260901112404 97 117 0.0 2.0 0.00 0.00 0.00 26 1013.7
20260901111904 97 117 1.0 3.0 0.00 0.00 0.00 26 1013.6
20260901111404 97 117 1.0 3.0 0.00 0.00 0.00 26 1013.7
20260901110904 97 117 0.0 3.0 0.00 0.00 0.00 26 1013.7
20260901110404 97 117 1.0 3.0 0.00 0.00 0.00 26 1013.6
20260901105904 97 117 1.0 3.0 0.00 0.00 0.00 26 1013.6
20260901105404 97 117 1.0 2.0 0.00 0.00 0.00 26 1013.5
20260901104904 97 117 1.0 3.0 0.00 0.00 0.00 26 1013.5
20260901103904 97 117 0.0 2.0 0.00 0.00 0.00 26 1013.5
20260901103403 97 117 1.0 2.0 0.00 0.00 0.00 26 1013.5
20260901102904 97 115 1.0 3.0 0.00 0.00 0.00 26 1013.5
20260901102404 97 112 1.0 2.0 0.00 0.00 0.00 26 1013.5
20260901101904 97 112 1.0 3.0 0.00 0.00 0.00 26 1013.5
20260901101404 97 112 0.0 3.0 0.00 0.00 0.00 26 1013.5
20260901100903 97 112 0.0 2.0 0.00 0.00 0.00 26 1013.5
20260901095904 97 117 1.0 3.0 0.00 0.00 0.00 26 1013.5
20260901095403 97 117 2.0 3.0 0.00 0.00 0.00 26 1013.5
20260901094903 97 116 2.0 6.0 0.00 0.00 0.00 26 1013.6
20260901094404 97 106 2.0 6.0 0.00 0.00 0.00 26 1013.6
20260901093903 97 111 3.0 7.0 0.00 0.00 0.00 26 1013.7
20260901093404 97 119 2.0 7.0 0.00 0.00 0.00 26 1013.7
20260901091904 97 104 1.0 3.0 0.00 0.00 0.00 26 1013.7
20260901091404 97 104 1.0 3.0 0.00 0.00 0.00 26 1013.7
20260901090904 97 104 2.0 6.0 0.00 0.00 0.00 26 1013.7
20260901090404 97 98 2.0 6.0 0.00 0.00 0.00 26 1013.6
20260901085903 97 96 2.0 3.0 0.00 0.00 0.00 26 1013.5
20260901085404 97 100 2.0 6.0 0.00 0.00 0.00 26 1013.6
20260901084903 97 103 1.0 6.0 0.00 0.00 0.00 26 1013.5
20260901084404 97 98 2.0 3.0 0.00 0.00 0.00 26 1013.5
20260901083904 97 97 2.0 3.0 0.00 0.00 0.00 26 1013.4
20260901083404 97 94 2.0 6.0 0.00 0.00 0.00 26 1013.3
20260901081904 97 101 2.0 6.0 0.00 0.00 0.00 26 1013.4
20260901081404 97 101 1.0 3.0 0.00 0.00 0.00 26 1013.4
20260901080903 97 100 3.0 3.0 0.00 0.00 0.00 26 1013.4
20260901080404 97 100 2.0 6.0 0.00 0.00 0.00 26 1013.3
20260901074904 97 109 2.0 3.0 0.00 0.00 0.00 26 1013.3
20260901074403 97 111 1.0 3.0 0.00 0.00 0.00 26 1013.3
20260901073904 97 111 2.0 3.0 0.00 0.00 0.00 26 1013.3
20260901072903 97 103 3.0 6.0 0.00 0.00 0.00 26 1013.2
20260901072404 97 114 2.0 6.0 0.00 0.00 0.00 26 1013.2
20260901071903 97 109 1.0 6.0 0.00 0.00 0.00 26 1013.2
20260901071404 97 111 2.0 6.0 0.00 0.00 0.00 26 1013.1
20260901070903 97 105 2.0 6.0 0.00 0.00 0.00 26 1013.1
20260901065903 97 92 1.0 6.0 0.00 0.00 0.00 26 1013.2
20260901064904 97 85 2.0 3.0 0.00 0.00 0.00 26 1013.0
20260901064403 97 81 1.0 3.0 0.00 0.00 0.00 26 1013.1
20260901063903 97 82 1.0 3.0 0.00 0.00 0.00 26 1013.1
20260901063404 97 82 0.0 3.0 0.00 0.00 0.00 26 1013.1
20260901062904 97 82 1.0 3.0 0.00 0.00 0.00 26 1013.0
20260901062404 97 82 1.0 5.0 0.00 0.00 0.00 26 1012.9
20260901061904 97 84 1.0 5.0 0.00 0.00 0.00 26 1012.9
20260901061403 97 85 2.0 5.0 0.00 0.00 0.00 26 1012.9
20260901060904 97 79 2.0 5.0 0.00 0.00 0.00 26 1012.8
20260901060404 97 83 2.0 5.0 0.00 0.00 0.00 26 1012.8
20260901055903 97 62 2.0 6.0 0.00 0.00 0.00 26 1012.7
20260901055405 97 80 3.0 8.0 0.00 0.00 0.00 26 1012.7
20260901054905 97 62 3.0 5.0 0.00 0.00 0.00 26 1012.6
20260901053905 97 78 2.0 3.0 0.00 0.00 0.00 26 1012.6
20260901053404 97 74 2.0 6.0 0.00 0.00 0.00 26 1012.6
20260901052905 97 80 2.0 3.0 0.00 0.00 0.00 26 1012.4
20260901052404 97 80 2.0 7.0 0.00 0.00 0.00 26 1012.4
20260901051905 97 80 2.0 7.0 0.00 0.00 0.00 26 1012.4
20260901051405 97 81 3.0 7.0 0.00 0.00 0.00 26 1012.5
20260901050905 97 80 3.0 6.0 0.00 0.00 0.00 26 1012.4
20260901045905 97 72 2.0 5.0 0.00 0.00 0.00 26 1012.3